XSR361 KFTW-KDWH

Flight info

Callsign XSR361
Flight time 0h 39m
Altitude 23000
Route JPOOL8 TORNN BAZBL RIICE1
Aircraft E55P/M-SBDGRW/LB2

Departure

Time 2026-05-09 14:26
Airport Fort Worth Meacham International Airport (KFTW)

Arrival

Time 2026-05-09 15:06
Airport David Wayne Hooks Memorial Airport (KDWH)
Time Latitude Longitude Altitude Speed Heading
2026-05-09 13:59 32.82441 -97.35785 691 ft 0 kts 90°
2026-05-09 14:21 32.82441 -97.35784 691 ft 0 kts 90°
2026-05-09 14:21 32.82431 -97.35762 690 ft 3 kts 162°
2026-05-09 14:21 32.82398 -97.35799 690 ft 9 kts 260°
2026-05-09 14:21 32.82400 -97.35880 691 ft 11 kts 274°
2026-05-09 14:22 32.82399 -97.35985 691 ft 13 kts 243°
2026-05-09 14:22 32.82309 -97.35998 689 ft 16 kts 172°
2026-05-09 14:22 32.82174 -97.35976 687 ft 22 kts 172°
2026-05-09 14:22 32.82010 -97.35949 684 ft 24 kts 172°
2026-05-09 14:23 32.81839 -97.35922 680 ft 24 kts 172°
2026-05-09 14:23 32.81668 -97.35892 677 ft 25 kts 172°
2026-05-09 14:23 32.81482 -97.35860 673 ft 27 kts 172°
2026-05-09 14:23 32.81298 -97.35828 667 ft 26 kts 172°
2026-05-09 14:24 32.81153 -97.35804 664 ft 15 kts 172°
2026-05-09 14:24 32.81052 -97.35787 662 ft 11 kts 174°
2026-05-09 14:24 32.81005 -97.35803 661 ft 1 kts 232°
2026-05-09 14:25 32.80998 -97.35820 661 ft 5 kts 251°
2026-05-09 14:25 32.80990 -97.35886 659 ft 7 kts 278°
2026-05-09 14:26 32.81035 -97.35915 659 ft 10 kts 353°
2026-05-09 14:26 32.81361 -97.35969 668 ft 90 kts 352°
2026-05-09 14:26 32.82175 -97.36112 922 ft 135 kts 352°
2026-05-09 14:26 32.83163 -97.36270 1574 ft 156 kts 351°
2026-05-09 14:27 32.84330 -97.36465 2100 ft 181 kts 351°
2026-05-09 14:27 32.85543 -97.37032 2536 ft 197 kts 317°
2026-05-09 14:27 32.86126 -97.38506 2834 ft 207 kts 272°
2026-05-09 14:27 32.85658 -97.40108 2984 ft 213 kts 230°
2026-05-09 14:28 32.84367 -97.40938 2999 ft 217 kts 187°
2026-05-09 14:28 32.82881 -97.40714 3003 ft 218 kts 163°
2026-05-09 14:28 32.81416 -97.40183 3051 ft 218 kts 163°
2026-05-09 14:28 32.79972 -97.39658 3343 ft 216 kts 162°
2026-05-09 14:29 32.78547 -97.39140 3887 ft 216 kts 163°
2026-05-09 14:29 32.77110 -97.38628 4633 ft 216 kts 162°
2026-05-09 14:29 32.75643 -97.38107 5348 ft 231 kts 163°
2026-05-09 14:29 32.74052 -97.37582 6150 ft 245 kts 163°
2026-05-09 14:30 32.72420 -97.36974 6989 ft 254 kts 153°
2026-05-09 14:30 32.71022 -97.35686 7846 ft 258 kts 133°
2026-05-09 14:30 32.69785 -97.34163 8802 ft 261 kts 129°
2026-05-09 14:30 32.68535 -97.32562 9677 ft 268 kts 128°
2026-05-09 14:31 32.67289 -97.30946 10557 ft 273 kts 129°
2026-05-09 14:31 32.66015 -97.29291 11503 ft 275 kts 129°
2026-05-09 14:31 32.64723 -97.27613 12460 ft 277 kts 129°
2026-05-09 14:31 32.63427 -97.25940 13368 ft 280 kts 130°
2026-05-09 14:32 32.62106 -97.24229 14246 ft 284 kts 130°
2026-05-09 14:32 32.60771 -97.22503 15073 ft 290 kts 129°
2026-05-09 14:32 32.59407 -97.20740 15897 ft 295 kts 129°
2026-05-09 14:32 32.58012 -97.18936 16750 ft 299 kts 130°
2026-05-09 14:33 32.56609 -97.17127 17567 ft 303 kts 130°
2026-05-09 14:33 32.55180 -97.15280 18358 ft 308 kts 130°
2026-05-09 14:33 32.53732 -97.13416 19176 ft 311 kts 130°
2026-05-09 14:33 32.52269 -97.11531 19947 ft 316 kts 130°
2026-05-09 14:34 32.50767 -97.09595 20697 ft 320 kts 130°
2026-05-09 14:34 32.49262 -97.07655 21475 ft 322 kts 130°
2026-05-09 14:34 32.47741 -97.05697 22193 ft 327 kts 130°
2026-05-09 14:34 32.46195 -97.03706 22709 ft 337 kts 129°
2026-05-09 14:35 32.44577 -97.01627 22911 ft 357 kts 130°
2026-05-09 14:35 32.42829 -96.99373 22939 ft 380 kts 130°
2026-05-09 14:35 32.40997 -96.97021 22939 ft 400 kts 130°
2026-05-09 14:35 32.39079 -96.94567 22931 ft 416 kts 130°
2026-05-09 14:36 32.37100 -96.92027 22922 ft 417 kts 130°
2026-05-09 14:36 32.35145 -96.89522 22915 ft 418 kts 130°
2026-05-09 14:36 32.33168 -96.86988 22914 ft 418 kts 130°
2026-05-09 14:36 32.31209 -96.84485 22914 ft 419 kts 130°
2026-05-09 14:37 32.29216 -96.81946 22910 ft 420 kts 133°
2026-05-09 14:37 32.26806 -96.80017 22917 ft 424 kts 156°
2026-05-09 14:37 32.23946 -96.79113 22928 ft 425 kts 165°
2026-05-09 14:37 32.21122 -96.78129 22922 ft 426 kts 162°
2026-05-09 14:38 32.18299 -96.77078 22916 ft 426 kts 161°
2026-05-09 14:38 32.15456 -96.75987 22918 ft 427 kts 161°
2026-05-09 14:38 32.12647 -96.74896 22919 ft 427 kts 161°
2026-05-09 14:38 32.09848 -96.73806 22916 ft 428 kts 161°
2026-05-09 14:39 32.07002 -96.72697 22917 ft 429 kts 162°
2026-05-09 14:39 32.04174 -96.71595 22922 ft 429 kts 162°
2026-05-09 14:39 32.01304 -96.70486 22925 ft 430 kts 162°
2026-05-09 14:39 31.98480 -96.69389 22922 ft 431 kts 163°
2026-05-09 14:40 31.95650 -96.68289 22920 ft 431 kts 163°
2026-05-09 14:40 31.92795 -96.67179 22919 ft 431 kts 164°
2026-05-09 14:40 31.89919 -96.66065 22922 ft 430 kts 165°
2026-05-09 14:40 31.87083 -96.64970 22918 ft 430 kts 165°
2026-05-09 14:41 31.84259 -96.63879 22921 ft 428 kts 166°
2026-05-09 14:41 31.81411 -96.62781 22918 ft 428 kts 166°
2026-05-09 14:41 31.78600 -96.61699 22922 ft 427 kts 166°
2026-05-09 14:41 31.75781 -96.60611 22921 ft 426 kts 166°
2026-05-09 14:42 31.72953 -96.59520 22918 ft 424 kts 166°
2026-05-09 14:42 31.70189 -96.58453 22917 ft 423 kts 166°
2026-05-09 14:42 31.67386 -96.57369 22920 ft 421 kts 167°
2026-05-09 14:42 31.64580 -96.56293 22922 ft 419 kts 167°
2026-05-09 14:43 31.61838 -96.55237 22922 ft 417 kts 167°
2026-05-09 14:43 31.59104 -96.54188 22925 ft 415 kts 167°
2026-05-09 14:43 31.56340 -96.53124 22920 ft 412 kts 167°
2026-05-09 14:43 31.53638 -96.52087 22919 ft 410 kts 167°
2026-05-09 14:44 31.50936 -96.50931 22918 ft 412 kts 161°
2026-05-09 14:44 31.48362 -96.49548 22922 ft 409 kts 162°
2026-05-09 14:44 31.45765 -96.48188 22922 ft 408 kts 162°
2026-05-09 14:44 31.43167 -96.46829 22922 ft 407 kts 162°
2026-05-09 14:45 31.40574 -96.45468 22919 ft 405 kts 162°
2026-05-09 14:45 31.38007 -96.44132 22918 ft 404 kts 162°
2026-05-09 14:45 31.35459 -96.42798 22919 ft 403 kts 162°
2026-05-09 14:45 31.32869 -96.41448 22708 ft 408 kts 162°
2026-05-09 14:46 31.30244 -96.40086 22239 ft 417 kts 162°
2026-05-09 14:46 31.27584 -96.38700 21765 ft 421 kts 162°
2026-05-09 14:46 31.24899 -96.37301 21270 ft 424 kts 161°
2026-05-09 14:46 31.22236 -96.35915 20755 ft 419 kts 161°
2026-05-09 14:47 31.19591 -96.34532 20213 ft 411 kts 161°
2026-05-09 14:47 31.16993 -96.33186 19680 ft 410 kts 161°
2026-05-09 14:47 31.14383 -96.31830 19141 ft 409 kts 160°
2026-05-09 14:47 31.11818 -96.30495 18606 ft 408 kts 160°
2026-05-09 14:48 31.09197 -96.29135 18067 ft 406 kts 159°
2026-05-09 14:48 31.06650 -96.27813 17577 ft 403 kts 159°
2026-05-09 14:48 31.04095 -96.26487 17071 ft 400 kts 159°
2026-05-09 14:48 31.01565 -96.25173 16552 ft 397 kts 159°
2026-05-09 14:49 30.99074 -96.23885 16033 ft 394 kts 158°
2026-05-09 14:49 30.96581 -96.22590 15507 ft 386 kts 158°
2026-05-09 14:49 30.94147 -96.21332 14996 ft 374 kts 158°
2026-05-09 14:49 30.91807 -96.20119 14492 ft 365 kts 158°
2026-05-09 14:50 30.89531 -96.18947 13999 ft 356 kts 157°
2026-05-09 14:50 30.87281 -96.17785 13507 ft 349 kts 157°
2026-05-09 14:50 30.85073 -96.16645 13031 ft 343 kts 157°
2026-05-09 14:50 30.82936 -96.15539 12593 ft 336 kts 157°
2026-05-09 14:51 30.80809 -96.14439 12147 ft 331 kts 157°
2026-05-09 14:51 30.78719 -96.13361 11727 ft 325 kts 157°
2026-05-09 14:51 30.76673 -96.12306 11344 ft 321 kts 157°
2026-05-09 14:51 30.74639 -96.11258 10952 ft 316 kts 157°
2026-05-09 14:52 30.72653 -96.10237 10565 ft 312 kts 157°
2026-05-09 14:52 30.70660 -96.09209 10171 ft 309 kts 158°
2026-05-09 14:52 30.68733 -96.08219 9805 ft 305 kts 157°
2026-05-09 14:52 30.66778 -96.07214 9438 ft 302 kts 158°
2026-05-09 14:53 30.64872 -96.06233 9092 ft 301 kts 158°
2026-05-09 14:53 30.62994 -96.05167 9002 ft 302 kts 147°
2026-05-09 14:53 30.61374 -96.03607 9001 ft 299 kts 141°
2026-05-09 14:53 30.59827 -96.02035 8973 ft 297 kts 139°
2026-05-09 14:54 30.58319 -96.00445 8799 ft 291 kts 139°
2026-05-09 14:54 30.56832 -95.98856 8460 ft 292 kts 139°
2026-05-09 14:54 30.55339 -95.97249 8122 ft 293 kts 139°
2026-05-09 14:54 30.53836 -95.95627 7801 ft 292 kts 138°
2026-05-09 14:55 30.52364 -95.94040 7514 ft 291 kts 138°
2026-05-09 14:55 30.50874 -95.92434 7220 ft 289 kts 138°
2026-05-09 14:55 30.49412 -95.90853 6929 ft 287 kts 138°
2026-05-09 14:55 30.47956 -95.89284 6641 ft 285 kts 138°
2026-05-09 14:56 30.46520 -95.87738 6351 ft 283 kts 137°
2026-05-09 14:56 30.45089 -95.86193 6049 ft 282 kts 138°
2026-05-09 14:56 30.43653 -95.84640 5718 ft 281 kts 138°
2026-05-09 14:56 30.42238 -95.83116 5382 ft 278 kts 138°
2026-05-09 14:57 30.40812 -95.81583 5073 ft 274 kts 139°
2026-05-09 14:57 30.39457 -95.80126 5014 ft 263 kts 138°
2026-05-09 14:57 30.38306 -95.78535 5008 ft 252 kts 126°
2026-05-09 14:57 30.37280 -95.76907 4916 ft 244 kts 128°
2026-05-09 14:58 30.36307 -95.75368 4737 ft 233 kts 127°
2026-05-09 14:58 30.35357 -95.73882 4523 ft 226 kts 127°
2026-05-09 14:58 30.34438 -95.72444 4251 ft 222 kts 127°
2026-05-09 14:58 30.33526 -95.71012 3983 ft 219 kts 127°
2026-05-09 14:59 30.32621 -95.69598 3712 ft 216 kts 127°
2026-05-09 14:59 30.31740 -95.68217 3447 ft 213 kts 126°
2026-05-09 14:59 30.30864 -95.66846 3176 ft 211 kts 126°
2026-05-09 14:59 30.29990 -95.65475 2911 ft 209 kts 126°
2026-05-09 15:00 30.29140 -95.64141 2667 ft 207 kts 126°
2026-05-09 15:00 30.28286 -95.62804 2421 ft 205 kts 126°
2026-05-09 15:00 30.27452 -95.61494 2190 ft 203 kts 126°
2026-05-09 15:00 30.26609 -95.60183 2039 ft 199 kts 127°
2026-05-09 15:01 30.24657 -95.58164 2010 ft 188 kts 168°
2026-05-09 15:01 30.23391 -95.57895 1999 ft 184 kts 170°
2026-05-09 15:01 30.22137 -95.57665 2028 ft 177 kts 171°
2026-05-09 15:02 30.20931 -95.57476 2011 ft 172 kts 173°
2026-05-09 15:02 30.19751 -95.57307 2009 ft 166 kts 173°
2026-05-09 15:02 30.18623 -95.57136 1993 ft 162 kts 171°
2026-05-09 15:02 30.17523 -95.56955 1992 ft 157 kts 172°
2026-05-09 15:03 30.16467 -95.56811 1943 ft 143 kts 173°
2026-05-09 15:03 30.15509 -95.56674 1758 ft 134 kts 172°
2026-05-09 15:03 30.14614 -95.56540 1589 ft 127 kts 172°
2026-05-09 15:03 30.13756 -95.56421 1429 ft 122 kts 172°
2026-05-09 15:04 30.12919 -95.56297 1290 ft 118 kts 171°
2026-05-09 15:04 30.12114 -95.56181 1138 ft 116 kts 172°
2026-05-09 15:06 30.06585 -95.55373 151 ft 99 kts 172°
2026-05-09 15:06 30.06113 -95.55303 149 ft 37 kts 173°
2026-05-09 15:06 30.05981 -95.55276 149 ft 12 kts 139°
2026-05-09 15:06 30.06014 -95.55232 149 ft 11 kts 353°
2026-05-09 15:07 30.06116 -95.55247 149 ft 18 kts 352°
2026-05-09 15:07 30.06246 -95.55265 149 ft 19 kts 353°
2026-05-09 15:07 30.06375 -95.55284 149 ft 17 kts 355°
2026-05-09 15:07 30.06448 -95.55232 149 ft 13 kts 59°
2026-05-09 15:08 30.06520 -95.55160 149 ft 15 kts
2026-05-09 15:08 30.06743 -95.55161 149 ft 16 kts
2026-05-09 15:08 30.06862 -95.55158 149 ft 17 kts 359°
2026-05-09 15:09 30.06966 -95.55171 149 ft 12 kts 321°